Flag for Czech Republic Weather past 2 weeks in Ostrava, Czech Republic

Now
56 °F

Passing clouds.


Feels Like: 56 °F
Forecast: 57 / 72 °F
Wind: 2 mph from West

Location: Ostrava / Mosnov

Current Time: Aug 29, 2014 at 10:07:06 AM

Latest Report: Aug 29, 2014 at 9:00 AM


Visibility: 25 mi

Pressure: 30.13 "Hg

Humidity: 81%

Dew point: 51 °F

Location of OstravaLocation

Historic Weather in Ostrava — Graph

°F

Ostrava temperature yesterday

Maximum temperature yesterday: 68 °F (at 3:00 PM)
Minimum temperature yesterday: 44 °F (at 5:00 AM)
Average temperature yesterday: 57 °F

Past Weeks' High & Low Weather Summary

 TemperatureHumidityPressure
High74 °F (Aug 18, 3:00 PM)99% (Aug 24, 7:00 AM)30.14 "Hg (Aug 24, 7:00 AM)
Low43 °F (Aug 25, 6:00 AM)42% (Aug 15, 2:00 PM)29.72 "Hg (Aug 26, 6:00 PM)
Average58 °F81%29.97 "Hg
* Reported Aug 14 8:00 AM — Aug 29 8:00 AM, Ostrava, Weather by CustomWeather, © 2014

Note: Actual official high and low records may vary slightly from our data, if they occured in-between our weather recording intervals... More about our weather records

Advertising

Ostrava weather history for previous 24 hours

 ConditionsComfort  
Time TempWeatherWind HumidityBarometerVisibility
8:00 AM
Aug 29
52 °FPassing clouds.2 mph89%30.13 "Hg25 mi
7:00 AM47 °FPassing clouds.3 mph95%30.14 "Hg25 mi
6:00 AM46 °FPassing clouds.3 mph93%30.14 "Hg25 mi
5:00 AM46 °FPassing clouds.3 mph95%30.14 "Hg9 mi
4:00 AM49 °FPassing clouds.3 mph93%30.14 "Hg9 mi
3:00 AM47 °FClear.3 mph95%30.14 "Hg9 mi
2:00 AM49 °FClear.3 mph93%30.14 "Hg9 mi
1:00 AM49 °FClear.3 mph93%30.14 "Hg12 mi
12:00 AM49 °FClear.2 mph92%30.14 "Hg12 mi
11:00 PM
Aug 28
53 °FClear.1 mph84%30.13 "Hg12 mi
10:00 PM56 °FClear.2 mph77%30.12 "Hg12 mi
9:00 PM58 °FClear.2 mph71%30.11 "Hg16 mi
8:00 PM60 °FPassing clouds.2 mph63%30.09 "Hg22 mi
7:00 PM64 °FPassing clouds.3 mph57%30.08 "Hg31 mi
6:00 PM66 °FScattered clouds.1 mph53%30.08 "Hg25 mi
5:00 PM67 °FPartly sunny.1 mph48%30.08 "Hg28 mi
4:00 PM66 °FPartly sunny.5 mph49%30.08 "Hg28 mi
3:00 PM68 °FPartly sunny.3 mph45%30.08 "Hg25 mi
2:00 PM68 °FPartly sunny.6 mph51%30.09 "Hg25 mi
1:00 PM66 °FPartly sunny.5 mph52%30.10 "Hg25 mi
12:00 PM65 °FPartly sunny.3 mph57%30.11 "Hg25 mi
11:00 AM63 °FScattered clouds.5 mph62%30.11 "Hg19 mi
10:00 AM59 °FPassing clouds.5 mph75%30.12 "Hg12 mi
Weather by CustomWeather, © 2014

See weather overviewHow to use our weather pages